Kirkland, Quebec

8:21 AM EDT on July 28, 2017 (GMT -0400)
Pierrefonds | | Change Station

Elev 112 ft 45.45 °N, 73.89 °W | Updated 31 seconds ago

Partly Cloudy
Partly Cloudy
67.9 °F
Feels Like 67.9 °F
N
4.2
Wind Variable Wind from NNW
Gusts 5.8 mph

Today
High -- | Low -- °F
--% Chance of Precip.
Yesterday
High -- | Low -- °F
Precip. -- in
Pressure 29.94 in
Visibility 30.0 miles
Clouds Few 2500 ft
Mostly Cloudy 25000 ft
Dew Point 51 °F
Humidity 55%
Rainfall 0.00 in
Snow Depth Not available.
5:35 AM 8:27 PM
Waxing Crescent, 29% visible
METAR CYUL 281200Z 01009KT 30SM FEW025 BKN250 17/10 A2994 RMK CU1CI6 CU TR SLP139 DENSITY ALT 500FT
Pressure 29.94 in
Visibility 30.0 miles
Clouds Few 2500 ft
Mostly Cloudy 25000 ft
Dew Point 51 °F
Humidity 55%
Rainfall 0.00 in
Snow Depth Not available.
5:35 AM 8:27 PM
Waxing Crescent, 29% visible
METAR CYUL 281200Z 01009KT 30SM FEW025 BKN250 17/10 A2994 RMK CU1CI6 CU TR SLP139 DENSITY ALT 500FT

Get Severe Weather Alerts

Thanks for signing up!

Be on the lookout for a verification email in your inbox.

You'll start receiving the daily forecast at 6 AM.

×

10-Day Weather Forecast

Almanac

Astronomy

Jul. 28, 2017 Rise Set
Actual Time
Civil Twilight
Nautical Twilight
Astronomical Twilight
Moon
Length of Visible Light
Length of Day
Tomorrow will be .
, % of the Moon is Illuminated

Today's Extremes

Country Highs Country Lows

Community

WunderPhotos

Category 6

Welcome to Category 6. This is the collective home for Weather Underground's featured writeups by Dr. Jeff Masters (right), Bob Henson (left), Chris Burt, and other regular contributors.

Nearby

Air Quality

  Air Quality AQ Index Pollutant
Not available.

Snow Depth

Station Depth Elevation

Earthquake Activity

City Distance Mag. Time & Date
Minimum magnitude displayed is 2.5.

Coastal Water Temperatures

Place Temperature

Stations

Nearby Weather Stations

Station Location Temp. Windchill Dew Point Humidity Wind Precip. Elev Updated Type
                   

Watches & Warnings

There are currently no watches in effect.